sat.trackr.live / text

‹ back to catalog

STARLINK-33675

NORAD 63423 · 2025-065AA

PAYLOAD ACTIVE UNKNOWN

§ Identity

Operator
Country
US
Launch date
2025-03-31
Launch site
AFETR
Launch vehicle
Mass (kg)
RCS (m²)

Purposes: comms

External: N2YO · Heavens-Above · Gunter

§ Orbital elements

Epoch: 2026-05-25T01:26:10.892256Z

Period
94.27 min
Inclination
43.0044°
Eccentricity
0.0001363
Mean motion
15.27587871 rev/d
Perigee alt
482.1 km
Apogee alt
484.0 km
Semi-major
6,861.2 km
B*
8.3469e-4
RAAN
35.3861°
Arg perigee
274.3759°
Mean anomaly
85.6937°
Rev number
6,452

§ Raw data

STARLINK-336751 63423U 25065AA  26145.05984829  .00022783  00000+0  83469-3 0  99932 63423  43.0044  35.3861 0001363 274.3759  85.6937 15.27587871 64527

JSON: /api/v1/satellites/63423 · /tle

For live sub-satellite position, see the globe view (requires WebGL).

§ Visibility from observer

Set your observer location to see the next 7 days of passes ≥ 10°. The values pass through the URL so the page stays shareable.

No JS? Fill the form by hand. The geolocation button needs JavaScript.